Location: Carite
(10.3909°N, 67.0102°W)
Time: 12:17:13
(UTC+00:00)

Daily predictions for brighter satellites

Satellite Brightness Start Highest point End
(mag) Time Altitude Azimuth Time Altitude Azimuth Time Altitude Azimuth
Ariane H10 4.2 22:37:05 10° WSW 22:40:31 64° S 22:55:18 10° E
Cosmos 2322 4.1 22:45:58 10° S 22:51:16 42° ESE 22:56:32 10° NE
Cosmos 1725 Rocket 4.0 22:45:44 10° S 22:51:49 60° E 22:57:52 10° NNE
Meteor 2-6 Rocket 4.4 22:47:20 10° N 22:52:40 75° W 22:58:03 10° S
Cosmos 2346 Rocket 4.4 22:46:45 10° N 22:52:54 78° E 22:58:59 10° S
OAO 3 Rocket 4.1 22:50:26 10° SSW 22:54:36 30° SE 22:58:44 10° E
Longmarch 3A Rocket 2.5 22:54:08 10° W 22:56:39 57° NNW 23:04:32 10° ENE
Milstar 3 4.0 22:52:43 10° WNW 23:03:09 50° SW 23:09:54 10° SE
Meteor 2-21 Rocket 4.4 22:57:53 10° N 23:03:56 64° E 23:09:56 10° SSE
Cosmos 1354 Rocket 4.0 22:59:37 10° N 23:04:55 84° E 23:10:13 10° SSE
Cosmos 1743 3.4 23:02:28 10° SSE 23:05:32 27° E 23:08:35 10° NE
Cosmos 1802 Rocket 4.2 22:59:57 10° S 23:06:04 78° W 23:12:12 10° N
Cosmos 1844 Rocket 3.8 23:02:30 10° NNE 23:06:54 23° ENE 23:11:17 10° ESE
ISS -3.8 23:04:27 10° SW 23:07:47 87° SE 23:11:07 10° NE
COSMOS 2428 2.8 23:04:56 10° S 23:10:25 52° ESE 23:15:55 10° NNE
BREEZE-M DEB (TANK) 3.5 23:07:58 10° NW 23:12:54 39° WSW 23:15:15 10° SSE
Cosmos 2061 Rocket 4.0 23:11:49 10° S 23:18:07 73° E 23:24:29 10° N
Helios 1B rocket 2.2 23:15:43 10° SSE 23:19:32 62° ENE 23:23:20 10° N
Cosmos 2233 Rocket 3.9 23:14:38 10° S 23:20:43 71° E 23:26:48 10° N
ATLAS V CENTAUR R/B 3.0 23:12:41 10° WSW 23:21:58 82° SSE 23:23:40 22° E
Cosmos 2263 Rocket 4.5 23:19:39 10° NW 23:24:17 26° WSW 23:28:54 10° SSW
Resurs 1-3 4.5 23:24:52 19° ESE 23:26:49 27° ENE 23:30:27 10° NNE
Cosmos 1340 2.5 23:25:55 10° SSW 23:29:09 69° W 23:32:23 10° N
Cosmos 990 Rocket 3.9 23:24:37 10° N 23:29:43 61° ENE 23:34:47 10° SSE
SL-4 R/B 4.1 23:26:31 10° WNW 23:29:59 25° WSW 23:33:19 10° S
Meteor 1-27 Rocket 3.6 23:26:16 10° N 23:31:52 76° E 23:37:36 10° S
Landsat 7 3.9 23:30:47 10° S 23:35:28 80° WSW 23:40:10 10° NNW
GOES 2 Rocket 3.9 23:30:13 10° WNW 23:35:41 88° SSW 23:40:15 23° ESE
Cosmos 2292 Rocket 3.7 23:33:59 10° NNE 23:35:57 28° NE 23:35:57 28° NE
Meteor 2-4 Rocket 4.4 23:32:15 10° NNE 23:37:27 33° E 23:39:48 24° ESE
SPOT 1/Viking Rocket 4.0 23:37:28 23° SE 23:40:04 37° ENE 23:44:49 10° N
Sakura Rocket 4.5 23:33:29 10° WNW 23:41:37 61° SSW 23:45:36 22° SE
Cosmos 1844 3.8 23:39:51 10° N 23:45:12 50° ENE 23:47:52 28° SE
Iridium 4 Rocket 4.2 23:46:25 10° NNE 23:48:30 25° NE 23:48:30 25° NE
SAR-Lupe-2 3.4 23:50:34 66° ESE 23:50:47 69° ENE 23:54:19 10° N
